Погода в Новобобруйске

Россия / Калининградская область     54°30′31″N   21°20′06″E
темп.,
°C
ветер,
м/с
пор.,
м/с
влажн.,
%
обл.,
%
осадки,
мм/ч
давл.,
гПа
погр.,
м
18 апреля, вс
вс1823:00+8всв349173 0.0 102158
02:00+7всв3493100 0.0 102170
05:00+6св239456 0.0 102154
08:00+10всв358398 0.0 1021256
11:00+14в2468100 0.0 1021853
14:00+16всв3562100 0.4 10201350
17:00+16всв356882 2.9 10201046
20:00+11всв36876 4.8 1020113
19 апреля, пн
пн1923:00+9всв389014 0.2 1021142
02:00+7в35895 0.2 102188
05:00+6в34910 0.0 102174
08:00+10в35850 0.0 1022247
11:00+14в35613 0.0 10211418
14:00+15в4548100 0.1 10212110
17:00+13всв4961100 0.0 1021459
20:00+9в387655 0.0 1021168
20 апреля, вт
вт2023:00+7в23875 0.0 102157
02:00+7всв228098 0.0 102029
05:00+7ссв2579100 0.0 1020125
08:00+9ссв3475100 0.0 1019239
11:00+13всв4457100 0.3 10181343
14:00+12св2359100 0.7 10161165
17:00+12св3462100 0.3 10151199
20:00+8ссз3477100 0.3 101562
21 апреля, ср
ср2123:00+6ссз2280100 0.0 101414
02:00+6зсз248598 0.0 101378
05:00+4зсз368866 0.0 1012130
08:00+8зсз47745 0.0 1011383
11:00+12зсз45596 0.0 10111265
14:00+13зсз555290 0.1 10091953
17:00+12з35555 0.3 10091176
20:00+9юз2377100 0.4 100836
22 апреля, чт
чт2223:00+6з51085100 0.9 1009680
02:00+4юз41088100 1.0 1009444
05:00+3юз411901 0.0 1008363
08:00+5юз610774 0.0 1008735
11:00+4юз61089100 0.4 1009929
14:00+4юз51093100 0.9 1009955
17:00+4зюз5109699 1.4 1010660
20:00+3з51096100 1.7 1010728